Wetterdaten: aktuell Freitag, 21.02.2020 06:18
Datum Zeit Temp. I. Temp. 2m Temp. 5cm Temp. -10cm Temp. GH Temp. GH2 LF I. Luftf.2m Feuchte GH Feuchte GH2 Luftdruck Regen Wind Richtung Richtung Taupunkt Windchill Windben
21.02.2020 06:18 10,8 C 5,6 C 5,5 C 7,1 C 3,9 C 0,0 C 71 % 83 % 75 % 0 % 1020,4 hPa 0,0 l/m 19,3 km/h (3 Bft) S-SO 157 2,9 C 1,9 C 29,7 km/h (5 Bft)
21.02.2020 06:16 10,8 C 5,5 C 5,2 C 7,1 C 3,9 C 0,0 C 71 % 84 % 75 % 0 % 1020,4 hPa 0,0 l/m 20,3 km/h (4 Bft) W-SW 247 3,0 C 1,7 C 49,2 km/h (6 Bft)
21.02.2020 06:14 10,8 C 5,5 C 5,1 C 7,1 C 3,9 C 0,0 C 71 % 84 % 75 % 0 % 1020,4 hPa 0,0 l/m 18,7 km/h (3 Bft) W 270 3,0 C 1,9 C 24,6 km/h (4 Bft)
21.02.2020 06:12 10,8 C 5,4 C 4,7 C 7,0 C 3,8 C 0,0 C 71 % 86 % 75 % 0 % 1020,4 hPa 0,0 l/m 19,5 km/h (3 Bft) SW 225 3,3 C 1,6 C 37,7 km/h (5 Bft)
21.02.2020 06:10 10,8 C 5,4 C 4,7 C 7,0 C 3,8 C 0,0 C 71 % 86 % 75 % 0 % 1020,4 hPa 0,0 l/m 19,5 km/h (3 Bft) SW 225 3,3 C 1,6 C 37,7 km/h (5 Bft)
21.02.2020 06:08 10,8 C 5,4 C 4,7 C 7,0 C 3,8 C 0,0 C 71 % 86 % 75 % 0 % 1020,4 hPa 0,0 l/m 19,5 km/h (3 Bft) SW 225 3,3 C 1,6 C 37,7 km/h (5 Bft)
21.02.2020 06:06 10,8 C 5,4 C 4,7 C 7,0 C 3,8 C 0,0 C 71 % 86 % 75 % 0 % 1020,4 hPa 0,0 l/m 19,5 km/h (3 Bft) SW 225 3,3 C 1,6 C 54,1 km/h (7 Bft)
21.02.2020 06:04 10,8 C 5,4 C 4,7 C 7,0 C 3,8 C 0,0 C 71 % 86 % 75 % 0 % 1020,4 hPa 0,0 l/m 19,5 km/h (3 Bft) SW 225 3,3 C 1,6 C 37,7 km/h (5 Bft)
21.02.2020 06:02 10,8 C 5,4 C 4,7 C 7,0 C 3,8 C 0,0 C 71 % 87 % 75 % 0 % 1020,4 hPa 0,0 l/m 19,5 km/h (3 Bft) S 180 3,4 C 1,6 C 19,8 km/h (3 Bft)
21.02.2020 06:00 10,8 C 5,2 C 4,8 C 7,0 C 3,8 C 0,0 C 71 % 87 % 75 % 0 % 1020,4 hPa 0,0 l/m 19,0 km/h (3 Bft) SW 225 3,2 C 1,4 C 43,2 km/h (6 Bft)
21.02.2020 05:58 10,8 C 5,2 C 4,8 C 7,0 C 3,7 C 0,0 C 71 % 87 % 76 % 0 % 1019,4 hPa 0,0 l/m 18,0 km/h (3 Bft) S-SW 202 3,2 C 1,6 C 35,2 km/h (5 Bft)
21.02.2020 05:56 10,8 C 5,2 C 4,8 C 7,0 C 3,7 C 0,0 C 71 % 87 % 76 % 0 % 1019,4 hPa 0,0 l/m 16,9 km/h (3 Bft) S-SW 202 3,2 C 1,7 C 21,0 km/h (4 Bft)
21.02.2020 05:54 10,8 C 5,1 C 4,8 C 7,0 C 3,7 C 0,0 C 71 % 88 % 76 % 0 % 1019,4 hPa 0,0 l/m 16,3 km/h (3 Bft) S 180 3,3 C 1,7 C 30,4 km/h (5 Bft)
21.02.2020 05:52 10,8 C 5,1 C 4,8 C 7,0 C 3,6 C 0,0 C 71 % 88 % 76 % 0 % 1019,4 hPa 0,0 l/m 15,3 km/h (3 Bft) O-SO 112 3,3 C 1,8 C 28,5 km/h (4 Bft)
21.02.2020 05:50 10,8 C 5,1 C 4,8 C 7,0 C 3,6 C 0,0 C 71 % 89 % 76 % 0 % 1019,4 hPa 0,0 l/m 15,6 km/h (3 Bft) S 180 3,4 C 1,8 C 28,2 km/h (4 Bft)
21.02.2020 05:48 10,8 C 5,0 C 4,8 C 7,0 C 3,5 C 0,0 C 71 % 89 % 76 % 0 % 1019,4 hPa 0,0 l/m 15,0 km/h (3 Bft) S-SW 202 3,3 C 1,7 C 40,3 km/h (6 Bft)
21.02.2020 05:46 10,8 C 4,9 C 4,8 C 7,0 C 3,5 C 0,0 C 71 % 89 % 76 % 0 % 1019,4 hPa 0,0 l/m 13,8 km/h (3 Bft) SW 225 3,2 C 1,8 C 45,1 km/h (6 Bft)
21.02.2020 05:44 10,8 C 4,8 C 4,8 C 7,0 C 3,5 C 0,0 C 71 % 90 % 76 % 0 % 1019,4 hPa 0,0 l/m 13,0 km/h (3 Bft) SW 225 3,3 C 1,8 C 28,7 km/h (4 Bft)
21.02.2020 05:42 10,8 C 4,7 C 4,8 C 7,0 C 3,5 C 0,0 C 71 % 90 % 76 % 0 % 1019,4 hPa 0,0 l/m 12,9 km/h (3 Bft) O-SO 112 3,2 C 1,7 C 22,0 km/h (4 Bft)
21.02.2020 05:40 10,8 C 4,6 C 4,7 C 7,0 C 3,4 C 0,0 C 71 % 90 % 76 % 0 % 1019,4 hPa 0,0 l/m 11,9 km/h (2 Bft) SW 225 3,1 C 1,8 C 26,6 km/h (4 Bft)
21.02.2020 05:38 10,8 C 4,5 C 4,6 C 7,0 C 3,4 C 0,0 C 71 % 90 % 76 % 0 % 1019,1 hPa 0,0 l/m 12,4 km/h (3 Bft) S 180 3,0 C 1,6 C 30,4 km/h (5 Bft)
21.02.2020 05:36 10,8 C 4,4 C 4,6 C 7,0 C 3,4 C 0,0 C 71 % 90 % 76 % 0 % 1019,1 hPa 0,0 l/m 12,2 km/h (2 Bft) O 90 2,9 C 1,5 C 15,4 km/h (3 Bft)
21.02.2020 05:34 10,8 C 4,2 C 4,5 C 7,0 C 3,3 C 0,0 C 71 % 90 % 76 % 0 % 1019,1 hPa 0,0 l/m 12,9 km/h (3 Bft) S-SO 157 2,7 C 1,1 C 21,0 km/h (4 Bft)
21.02.2020 05:32 10,8 C 4,1 C 4,3 C 7,0 C 3,3 C 0,0 C 71 % 90 % 77 % 0 % 1019,1 hPa 0,0 l/m 12,7 km/h (3 Bft) S 180 2,6 C 1,0 C 26,6 km/h (4 Bft)
21.02.2020 05:30 10,8 C 4,0 C 4,2 C 7,0 C 3,2 C 0,0 C 71 % 90 % 77 % 0 % 1019,1 hPa 0,0 l/m 12,6 km/h (3 Bft) SW 225 2,5 C 0,9 C 18,8 km/h (3 Bft)
21.02.2020 05:28 10,8 C 3,7 C 4,1 C 7,0 C 3,2 C 0,0 C 71 % 90 % 77 % 0 % 1019,1 hPa 0,0 l/m 11,6 km/h (2 Bft) S 180 2,2 C 0,8 C 23,9 km/h (4 Bft)
21.02.2020 05:26 10,8 C 3,6 C 4,0 C 6,9 C 3,1 C 0,0 C 71 % 90 % 77 % 0 % 1019,1 hPa 0,0 l/m 10,5 km/h (2 Bft) S 180 2,1 C 0,9 C 41,5 km/h (6 Bft)
21.02.2020 05:24 10,8 C 3,5 C 3,9 C 6,9 C 3,1 C 0,0 C 71 % 90 % 77 % 0 % 1019,1 hPa 0,0 l/m 9,3 km/h (2 Bft) SW 225 2,0 C 1,0 C 29,0 km/h (5 Bft)
21.02.2020 05:22 10,8 C 3,5 C 3,9 C 6,9 C 3,1 C 0,0 C 71 % 90 % 77 % 0 % 1019,1 hPa 0,0 l/m 8,2 km/h (2 Bft) SW 225 2,0 C 1,3 C 21,2 km/h (4 Bft)
21.02.2020 05:20 10,8 C 3,4 C 3,7 C 7,0 C 3,1 C 0,0 C 71 % 90 % 77 % 0 % 1019,1 hPa 0,0 l/m 7,2 km/h (2 Bft) SW 225 1,9 C 1,5 C 27,5 km/h (4 Bft)
21.02.2020 05:18 10,8 C 3,3 C 3,6 C 6,9 C 3,1 C 0,0 C 70 % 90 % 77 % 0 % 1019,2 hPa 0,1 l/m 6,3 km/h (2 Bft) S-SW 202 1,8 C 1,7 C 7,2 km/h (2 Bft)
21.02.2020 05:16 10,8 C 3,2 C 3,6 C 6,9 C 3,1 C 0,0 C 70 % 90 % 77 % 0 % 1019,2 hPa 0,0 l/m 5,1 km/h (1 Bft) S 180 1,7 C 2,0 C 10,4 km/h (2 Bft)
21.02.2020 05:14 10,8 C 3,2 C 3,3 C 6,9 C 3,1 C 0,0 C 71 % 89 % 77 % 0 % 1019,2 hPa 0,0 l/m 4,7 km/h (1 Bft) W-SW 247 1,6 C 2,2 C 16,7 km/h (3 Bft)
21.02.2020 05:12 10,8 C 3,0 C 3,1 C 6,9 C 3,1 C 0,0 C 71 % 89 % 77 % 0 % 1019,2 hPa 0,2 l/m 4,7 km/h (1 Bft) S-SO 157 1,4 C 1,9 C 17,6 km/h (3 Bft)
21.02.2020 05:10 10,8 C 3,2 C 2,9 C 6,9 C 3,1 C 0,0 C 70 % 89 % 77 % 0 % 1019,2 hPa 0,0 l/m 5,0 km/h (1 Bft) W 270 1,6 C 2,0 C 8,2 km/h (2 Bft)
21.02.2020 05:08 10,8 C 3,4 C 2,6 C 7,0 C 3,3 C 0,0 C 70 % 89 % 76 % 0 % 1019,2 hPa 0,2 l/m 5,3 km/h (1 Bft) S-SO 157 1,8 C 2,1 C 17,6 km/h (3 Bft)
21.02.2020 05:06 10,8 C 3,7 C 2,2 C 7,0 C 3,5 C 0,0 C 71 % 89 % 76 % 0 % 1019,2 hPa 0,6 l/m 5,5 km/h (1 Bft) SO 135 2,1 C 2,4 C 31,6 km/h (5 Bft)
21.02.2020 05:04 10,8 C 4,7 C 1,9 C 7,1 C 3,7 C 0,0 C 70 % 89 % 75 % 0 % 1019,2 hPa 0,0 l/m 6,3 km/h (2 Bft) N 360 3,0 C 3,3 C 9,9 km/h (2 Bft)
21.02.2020 05:02 10,8 C 5,0 C 3,5 C 7,1 C 3,8 C 0,0 C 70 % 89 % 74 % 0 % 1019,2 hPa 0,3 l/m 6,8 km/h (2 Bft) O-NO 67 3,3 C 3,5 C 7,0 km/h (2 Bft)
21.02.2020 05:00 10,8 C 5,4 C 5,7 C 7,1 C 3,7 C 0,0 C 70 % 90 % 74 % 0 % 1019,2 hPa 0,2 l/m 6,3 km/h (2 Bft) NW 315 3,9 C 4,1 C 11,6 km/h (2 Bft)
21.02.2020 04:58 10,8 C 5,4 C 5,6 C 7,1 C 3,7 C 0,0 C 70 % 90 % 74 % 0 % 1017,3 hPa 0,0 l/m 6,8 km/h (2 Bft) S 180 3,9 C 3,9 C 10,1 km/h (2 Bft)
21.02.2020 04:56 10,8 C 5,2 C 5,7 C 7,1 C 3,5 C 0,0 C 70 % 90 % 75 % 0 % 1017,3 hPa 0,0 l/m 7,1 km/h (2 Bft) W-SW 247 3,7 C 3,6 C 11,1 km/h (2 Bft)
21.02.2020 04:54 10,8 C 5,1 C 5,6 C 7,2 C 3,5 C 0,0 C 70 % 90 % 75 % 0 % 1017,3 hPa 0,0 l/m 7,7 km/h (2 Bft) S 180 3,6 C 3,3 C 19,3 km/h (3 Bft)
21.02.2020 04:52 10,8 C 5,1 C 5,5 C 7,2 C 3,5 C 0,0 C 70 % 90 % 75 % 0 % 1017,3 hPa 0,0 l/m 8,2 km/h (2 Bft) S 180 3,6 C 3,2 C 14,5 km/h (3 Bft)
21.02.2020 04:50 10,8 C 5,0 C 5,5 C 7,2 C 3,3 C 0,0 C 70 % 90 % 76 % 0 % 1017,3 hPa 0,0 l/m 8,2 km/h (2 Bft) S-SO 157 3,5 C 3,1 C 12,8 km/h (3 Bft)
21.02.2020 04:48 10,8 C 5,0 C 5,5 C 7,2 C 3,3 C 0,0 C 70 % 90 % 76 % 0 % 1017,3 hPa 0,0 l/m 8,9 km/h (2 Bft) S-SW 202 3,5 C 2,9 C 7,0 km/h (2 Bft)
21.02.2020 04:46 10,8 C 4,8 C 5,3 C 7,2 C 3,1 C 0,0 C 70 % 90 % 76 % 0 % 1017,3 hPa 0,0 l/m 8,9 km/h (2 Bft) O-NO 67 3,3 C 2,7 C 14,7 km/h (3 Bft)
21.02.2020 04:44 10,8 C 4,6 C 5,1 C 7,2 C 3,1 C 0,0 C 70 % 90 % 76 % 0 % 1017,3 hPa 0,0 l/m 9,5 km/h (2 Bft) S 180 3,1 C 2,3 C 26,8 km/h (4 Bft)
21.02.2020 04:42 10,8 C 4,6 C 5,0 C 7,2 C 3,0 C 0,0 C 70 % 90 % 76 % 0 % 1017,3 hPa 0,0 l/m 9,0 km/h (2 Bft) S 180 3,1 C 2,4 C 18,3 km/h (3 Bft)
21.02.2020 04:40 10,8 C 4,5 C 5,2 C 7,2 C 2,9 C 0,0 C 70 % 90 % 77 % 0 % 1017,3 hPa 0,0 l/m 9,0 km/h (2 Bft) S 180 3,0 C 2,3 C 13,0 km/h (3 Bft)
21.02.2020 04:38 10,8 C 4,2 C 5,4 C 7,0 C 2,7 C 0,0 C 70 % 90 % 77 % 0 % 1018,1 hPa 0,0 l/m 9,0 km/h (2 Bft) S 180 2,7 C 1,9 C 17,9 km/h (3 Bft)
21.02.2020 04:36 10,8 C 4,1 C 5,5 C 7,1 C 2,7 C 0,0 C 70 % 90 % 77 % 0 % 1018,1 hPa 0,0 l/m 8,2 km/h (2 Bft) S 180 2,6 C 2,0 C 28,5 km/h (4 Bft)
21.02.2020 04:34 10,8 C 3,5 C 5,5 C 7,1 C 2,5 C 0,0 C 70 % 90 % 78 % 0 % 1018,1 hPa 0,0 l/m 7,6 km/h (2 Bft) S-SW 202 2,0 C 1,5 C 28,5 km/h (4 Bft)
21.02.2020 04:32 10,8 C 3,2 C 5,3 C 7,1 C 2,5 C 0,0 C 70 % 90 % 78 % 0 % 1018,1 hPa 0,0 l/m 6,0 km/h (2 Bft) SO 135 1,7 C 1,7 C 15,7 km/h (3 Bft)
21.02.2020 04:30 10,8 C 1,6 C 4,9 C 7,0 C 2,4 C 0,0 C 70 % 91 % 78 % 0 % 1018,1 hPa 0,0 l/m 4,8 km/h (1 Bft) SW 225 0,3 C 0,3 C 12,6 km/h (3 Bft)
21.02.2020 04:28 10,8 C 1,6 C 4,0 C 7,0 C 2,3 C 0,0 C 70 % 91 % 78 % 0 % 1018,1 hPa 0,0 l/m 3,4 km/h (1 Bft) SO 135 0,3 C 1,6 C 18,3 km/h (3 Bft)
21.02.2020 04:26 10,8 C 1,2 C 3,1 C 7,0 C 2,3 C 0,0 C 70 % 90 % 78 % 0 % 1018,1 hPa 0,1 l/m 2,4 km/h (1 Bft) S 180 -0,3 C 1,2 C 18,8 km/h (3 Bft)
21.02.2020 04:24 10,8 C 1,0 C 2,3 C 7,0 C 2,3 C 0,0 C 70 % 90 % 78 % 0 % 1018,1 hPa 0,0 l/m 1,6 km/h (1 Bft) SW 225 -0,5 C 1,0 C 18,8 km/h (3 Bft)
21.02.2020 04:22 10,8 C 0,9 C 2,0 C 7,0 C 2,3 C 0,0 C 70 % 90 % 78 % 0 % 1018,1 hPa 0,1 l/m 0,5 km/h (0 Bft) SO 135 -0,6 C 0,9 C 5,8 km/h (2 Bft)
21.02.2020 04:20 10,8 C 0,8 C 2,0 C 7,0 C 2,3 C 0,0 C 70 % 90 % 78 % 0 % 1018,1 hPa 0,0 l/m 0,3 km/h (0 Bft) NW 315 -0,6 C 0,8 C 5,1 km/h (1 Bft)
21.02.2020 04:18 10,8 C 0,9 C 2,0 C 7,0 C 2,3 C 0,0 C 70 % 90 % 78 % 0 % 1018,2 hPa 0,0 l/m 0,0 km/h (0 Bft) O-SO 112 -0,6 C 0,9 C 0,0 km/h (0 Bft)
21.02.2020 04:16 10,8 C 0,9 C 2,0 C 7,0 C 2,2 C 0,0 C 70 % 90 % 78 % 0 % 1018,2 hPa 0,0 l/m 0,0 km/h (0 Bft) W-SW 247 -0,6 C 0,9 C 0,0 km/h (0 Bft)
21.02.2020 04:14 10,8 C 0,9 C 2,0 C 7,0 C 2,2 C 0,0 C 70 % 90 % 78 % 0 % 1018,2 hPa 0,1 l/m 0,2 km/h (0 Bft) N-NW 337 -0,6 C 0,9 C 0,0 km/h (0 Bft)
21.02.2020 04:12 10,8 C 0,9 C 1,9 C 7,0 C 2,2 C 0,0 C 70 % 90 % 78 % 0 % 1018,2 hPa 0,0 l/m 0,3 km/h (0 Bft) N-NW 337 -0,6 C 0,9 C 0,0 km/h (0 Bft)
21.02.2020 04:10 10,8 C 0,7 C 1,9 C 7,0 C 2,2 C 0,0 C 70 % 90 % 78 % 0 % 1018,2 hPa 0,0 l/m 0,5 km/h (0 Bft) W-NW 292 -0,7 C 0,7 C 0,0 km/h (0 Bft)
21.02.2020 04:08 10,8 C 0,7 C 1,9 C 7,0 C 2,1 C 0,0 C 70 % 90 % 78 % 0 % 1018,2 hPa 0,1 l/m 0,5 km/h (0 Bft) NO 45 -0,7 C 0,7 C 0,0 km/h (0 Bft)
21.02.2020 04:06 10,8 C 0,7 C 1,9 C 7,0 C 2,1 C 0,0 C 70 % 90 % 78 % 0 % 1018,2 hPa 0,0 l/m 0,5 km/h (0 Bft) N-NW 337 -0,7 C 0,7 C 0,0 km/h (0 Bft)
21.02.2020 04:04 10,8 C 0,7 C 1,9 C 7,0 C 2,1 C 0,0 C 70 % 90 % 78 % 0 % 1018,2 hPa 0,0 l/m 0,5 km/h (0 Bft) NW 315 -0,7 C 0,7 C 4,1 km/h (1 Bft)
21.02.2020 04:02 10,8 C 0,7 C 1,9 C 7,0 C 2,1 C 0,0 C 70 % 90 % 78 % 0 % 1018,2 hPa 0,0 l/m 0,3 km/h (0 Bft) S 180 -0,7 C 0,7 C 4,6 km/h (1 Bft)
21.02.2020 04:00 10,8 C 0,7 C 1,9 C 7,0 C 2,1 C 0,0 C 70 % 90 % 79 % 0 % 1018,2 hPa 0,0 l/m 0,2 km/h (0 Bft) O-SO 112 -0,7 C 0,7 C 0,0 km/h (0 Bft)
21.02.2020 03:58 10,8 C 0,7 C 1,9 C 7,0 C 2,0 C 0,0 C 70 % 90 % 79 % 0 % 1018,3 hPa 0,0 l/m 0,0 km/h (0 Bft) W-SW 247 -0,7 C 0,7 C 0,0 km/h (0 Bft)
21.02.2020 03:56 10,8 C 0,7 C 1,9 C 7,0 C 2,0 C 0,0 C 70 % 89 % 79 % 0 % 1018,3 hPa 0,1 l/m 0,0 km/h (0 Bft) S 180 -0,9 C 0,7 C 0,0 km/h (0 Bft)
21.02.2020 03:54 10,8 C 0,6 C 1,9 C 7,0 C 1,9 C 0,0 C 70 % 89 % 79 % 0 % 1018,3 hPa 0,0 l/m 0,0 km/h (0 Bft) W-SW 247 -1,0 C 0,6 C 0,0 km/h (0 Bft)
21.02.2020 03:52 10,8 C 0,6 C 1,8 C 7,0 C 1,9 C 0,0 C 70 % 89 % 79 % 0 % 1018,3 hPa 0,0 l/m 0,0 km/h (0 Bft) O-NO 67 -1,0 C 0,6 C 0,0 km/h (0 Bft)
21.02.2020 03:50 10,8 C 0,6 C 1,8 C 7,0 C 1,9 C 0,0 C 70 % 89 % 79 % 0 % 1018,3 hPa 0,0 l/m 0,0 km/h (0 Bft) NO 45 -1,0 C 0,6 C 2,4 km/h (1 Bft)
21.02.2020 03:48 10,8 C 0,6 C 1,8 C 7,0 C 1,9 C 0,0 C 70 % 89 % 79 % 0 % 1018,3 hPa 0,0 l/m 0,0 km/h (0 Bft) NO 45 -1,0 C 0,6 C 0,0 km/h (0 Bft)
21.02.2020 03:46 10,8 C 0,6 C 1,8 C 7,0 C 1,8 C 0,0 C 70 % 89 % 79 % 0 % 1018,3 hPa 0,1 l/m 0,0 km/h (0 Bft) S 180 -1,0 C 0,6 C 0,0 km/h (0 Bft)
21.02.2020 03:44 10,8 C 0,6 C 1,8 C 7,0 C 1,8 C 0,0 C 70 % 89 % 79 % 0 % 1018,3 hPa 0,0 l/m 0,0 km/h (0 Bft) N-NW 337 -1,0 C 0,6 C 0,0 km/h (0 Bft)
21.02.2020 03:42 10,8 C 0,5 C 1,8 C 7,0 C 1,7 C 0,0 C 70 % 89 % 79 % 0 % 1018,3 hPa 0,0 l/m 0,0 km/h (0 Bft) N-NO 22 -1,1 C 0,5 C 0,0 km/h (0 Bft)
21.02.2020 03:40 10,8 C 0,5 C 1,8 C 7,0 C 1,7 C 0,0 C 70 % 89 % 79 % 0 % 1018,3 hPa 0,0 l/m 0,0 km/h (0 Bft) O-NO 67 -1,1 C 0,5 C 0,0 km/h (0 Bft)
21.02.2020 03:38 10,8 C 0,5 C 1,7 C 7,0 C 1,7 C 0,0 C 70 % 89 % 79 % 0 % 1018,2 hPa 0,0 l/m 0,0 km/h (0 Bft) S-SO 157 -1,1 C 0,5 C 0,0 km/h (0 Bft)
21.02.2020 03:36 10,8 C 0,5 C 1,7 C 7,0 C 1,6 C 0,0 C 70 % 89 % 80 % 0 % 1018,2 hPa 0,0 l/m 0,0 km/h (0 Bft) NO 45 -1,1 C 0,5 C 0,0 km/h (0 Bft)
21.02.2020 03:34 10,8 C 0,5 C 1,7 C 7,0 C 1,6 C 0,0 C 70 % 89 % 80 % 0 % 1018,2 hPa 0,0 l/m 0,3 km/h (0 Bft) N-NO 22 -1,1 C 0,5 C 0,0 km/h (0 Bft)
21.02.2020 03:32 10,8 C 0,4 C 1,6 C 7,0 C 1,5 C 0,0 C 70 % 89 % 80 % 0 % 1018,2 hPa 0,0 l/m 0,3 km/h (0 Bft) O-NO 67 -1,2 C 0,4 C 0,0 km/h (0 Bft)
21.02.2020 03:30 10,8 C 0,4 C 1,6 C 7,0 C 1,5 C 0,0 C 70 % 89 % 80 % 0 % 1018,2 hPa 0,1 l/m 0,3 km/h (0 Bft) W-NW 292 -1,2 C 0,4 C 0,0 km/h (0 Bft)
21.02.2020 03:28 10,8 C 0,4 C 1,6 C 7,0 C 1,5 C 0,0 C 70 % 89 % 80 % 0 % 1018,2 hPa 0,0 l/m 0,5 km/h (0 Bft) NW 315 -1,2 C 0,4 C 0,0 km/h (0 Bft)
21.02.2020 03:26 10,8 C 0,4 C 1,6 C 7,0 C 1,4 C 0,0 C 70 % 89 % 80 % 0 % 1018,2 hPa 0,0 l/m 0,5 km/h (0 Bft) N-NW 337 -1,2 C 0,4 C 0,0 km/h (0 Bft)
21.02.2020 03:24 10,8 C 0,3 C 1,5 C 7,0 C 1,4 C 0,0 C 70 % 89 % 80 % 0 % 1018,2 hPa 0,0 l/m 0,5 km/h (0 Bft) W 270 -1,3 C 0,3 C 4,3 km/h (1 Bft)
21.02.2020 03:22 10,8 C 0,3 C 1,5 C 7,0 C 1,4 C 0,0 C 70 % 89 % 80 % 0 % 1018,2 hPa 0,0 l/m 0,3 km/h (0 Bft) N 360 -1,3 C 0,3 C 0,0 km/h (0 Bft)
21.02.2020 03:20 10,8 C 0,3 C 1,5 C 7,0 C 1,4 C 0,0 C 70 % 88 % 80 % 0 % 1018,2 hPa 0,0 l/m 0,3 km/h (0 Bft) N-NO 22 -1,4 C 0,3 C 0,0 km/h (0 Bft)
21.02.2020 03:18 10,8 C 0,3 C 1,4 C 7,0 C 1,4 C 0,0 C 70 % 88 % 80 % 0 % 1017,6 hPa 0,0 l/m 0,3 km/h (0 Bft) N-NW 337 -1,4 C 0,3 C 0,0 km/h (0 Bft)
21.02.2020 03:16 10,8 C 0,2 C 1,5 C 7,0 C 1,3 C 0,0 C 70 % 88 % 80 % 0 % 1017,6 hPa 0,0 l/m 0,2 km/h (0 Bft) W-SW 247 -1,5 C 0,2 C 0,0 km/h (0 Bft)
21.02.2020 03:14 10,8 C 0,2 C 1,4 C 7,0 C 1,3 C 0,0 C 70 % 88 % 80 % 0 % 1017,6 hPa 0,0 l/m 0,0 km/h (0 Bft) W-SW 247 -1,5 C 0,2 C 2,7 km/h (1 Bft)
21.02.2020 03:12 10,8 C 0,1 C 1,3 C 7,0 C 1,1 C 0,0 C 70 % 88 % 80 % 0 % 1017,6 hPa 0,0 l/m 1,3 km/h (1 Bft) O-NO 67 -1,6 C 0,1 C 0,0 km/h (0 Bft)
21.02.2020 03:10 10,8 C 0,1 C 1,3 C 7,0 C 1,1 C 0,0 C 70 % 88 % 80 % 0 % 1017,6 hPa 0,0 l/m 1,3 km/h (1 Bft) O-NO 67 -1,6 C 0,1 C 0,0 km/h (0 Bft)
21.02.2020 03:08 10,8 C 0,1 C 1,3 C 7,0 C 1,1 C 0,0 C 70 % 88 % 80 % 0 % 1017,6 hPa 0,0 l/m 1,3 km/h (1 Bft) O-NO 67 -1,6 C 0,1 C 0,0 km/h (0 Bft)
21.02.2020 03:06 10,8 C 0,1 C 1,3 C 7,0 C 1,1 C 0,0 C 70 % 88 % 80 % 0 % 1017,6 hPa 0,0 l/m 1,3 km/h (1 Bft) O-NO 67 -1,6 C 0,1 C 0,0 km/h (0 Bft)
21.02.2020 03:04 10,8 C 0,1 C 1,3 C 7,0 C 1,1 C 0,0 C 70 % 88 % 80 % 0 % 1017,6 hPa 0,0 l/m 1,3 km/h (1 Bft) O-NO 67 -1,6 C 0,1 C 0,0 km/h (0 Bft)
21.02.2020 03:02 10,8 C 0,1 C 1,3 C 7,0 C 1,1 C 0,0 C 70 % 88 % 80 % 0 % 1017,6 hPa 0,0 l/m 1,3 km/h (1 Bft) O-NO 67 -1,6 C 0,1 C 0,0 km/h (0 Bft)
21.02.2020 03:00 10,8 C 0,1 C 1,1 C 7,0 C 1,1 C 0,0 C 70 % 88 % 81 % 0 % 1017,6 hPa 0,0 l/m 1,8 km/h (1 Bft) O-NO 67 -1,6 C 0,1 C 2,7 km/h (1 Bft)
21.02.2020 02:58 10,8 C 0,1 C 1,1 C 7,0 C 1,0 C 0,0 C 70 % 88 % 81 % 0 % 1017,7 hPa 0,0 l/m 2,3 km/h (1 Bft) O-NO 67 -1,6 C 0,1 C 0,0 km/h (0 Bft)
21.02.2020 02:56 10,8 C 0,1 C 1,1 C 7,0 C 1,0 C 0,0 C 70 % 88 % 81 % 0 % 1017,7 hPa 0,0 l/m 2,7 km/h (1 Bft) O-NO 67 -1,6 C 0,1 C 5,6 km/h (1 Bft)
21.02.2020 02:54 10,8 C 0,1 C 1,1 C 7,0 C 0,9 C 0,0 C 70 % 88 % 81 % 0 % 1017,7 hPa 0,0 l/m 2,6 km/h (1 Bft) O-NO 67 -1,6 C 0,1 C 6,8 km/h (2 Bft)
21.02.2020 02:52 10,8 C 0,0 C 1,1 C 7,0 C 0,9 C 0,0 C 70 % 87 % 81 % 0 % 1017,7 hPa 0,0 l/m 2,6 km/h (1 Bft) O-NO 67 -1,9 C 0,0 C 4,3 km/h (1 Bft)
21.02.2020 02:50 10,8 C 0,0 C 1,1 C 7,0 C 0,9 C 0,0 C 70 % 87 % 81 % 0 % 1017,7 hPa 0,0 l/m 2,4 km/h (1 Bft) NO 45 -1,9 C 0,0 C 5,6 km/h (1 Bft)
21.02.2020 02:48 10,8 C 0,0 C 1,1 C 7,0 C 0,8 C 0,0 C 70 % 87 % 81 % 0 % 1017,7 hPa 0,0 l/m 2,3 km/h (1 Bft) O-NO 67 -1,9 C 0,0 C 3,1 km/h (1 Bft)
21.02.2020 02:46 10,8 C -0,2 C 0,9 C 7,0 C 0,8 C 0,0 C 70 % 87 % 81 % 0 % 1017,7 hPa 0,0 l/m 2,1 km/h (1 Bft) NO 45 -2,1 C -0,2 C 8,4 km/h (2 Bft)
21.02.2020 02:44 10,8 C -0,2 C 0,9 C 7,0 C 0,8 C 0,0 C 70 % 87 % 81 % 0 % 1017,7 hPa 0,0 l/m 1,6 km/h (1 Bft) O-SO 112 -2,1 C -0,2 C 4,1 km/h (1 Bft)
21.02.2020 02:42 10,8 C -0,3 C 0,9 C 7,0 C 0,7 C 0,0 C 70 % 87 % 81 % 0 % 1017,7 hPa 0,0 l/m 1,4 km/h (1 Bft) NO 45 -2,2 C -0,3 C 7,2 km/h (2 Bft)
21.02.2020 02:40 10,8 C -0,3 C 0,9 C 7,0 C 0,7 C 0,0 C 70 % 87 % 81 % 0 % 1017,7 hPa 0,0 l/m 1,1 km/h (1 Bft) S-SO 157 -2,2 C -0,3 C 2,7 km/h (1 Bft)
21.02.2020 02:38 10,8 C -0,3 C 0,9 C 7,0 C 0,7 C 0,0 C 70 % 87 % 81 % 0 % 1017,6 hPa 0,0 l/m 1,3 km/h (1 Bft) NO 45 -2,2 C -0,3 C 4,8 km/h (1 Bft)
21.02.2020 02:36 10,8 C -0,4 C 0,8 C 7,0 C 0,6 C 0,0 C 70 % 87 % 81 % 0 % 1017,6 hPa 0,0 l/m 1,1 km/h (1 Bft) O-SO 112 -2,3 C -0,4 C 6,8 km/h (2 Bft)
21.02.2020 02:34 10,8 C -0,4 C 0,8 C 7,0 C 0,6 C 0,0 C 70 % 87 % 82 % 0 % 1017,6 hPa 0,0 l/m 1,0 km/h (0 Bft) O-NO 67 -2,3 C -0,4 C 0,0 km/h (0 Bft)
21.02.2020 02:32 10,8 C -0,4 C 0,7 C 7,0 C 0,5 C 0,0 C 70 % 87 % 82 % 0 % 1017,6 hPa 0,0 l/m 1,3 km/h (1 Bft) NO 45 -2,3 C -0,4 C 2,4 km/h (1 Bft)
21.02.2020 02:30 10,8 C -0,5 C 0,7 C 7,1 C 0,5 C 0,0 C 70 % 87 % 82 % 0 % 1017,6 hPa 0,0 l/m 1,3 km/h (1 Bft) S-SO 157 -2,4 C -0,5 C 0,0 km/h (0 Bft)
21.02.2020 02:28 10,8 C -0,5 C 0,6 C 7,1 C 0,4 C 0,0 C 70 % 87 % 82 % 0 % 1017,6 hPa 0,0 l/m 1,3 km/h (1 Bft) S 180 -2,4 C -0,5 C 6,8 km/h (2 Bft)
21.02.2020 02:26 10,8 C -0,5 C 0,5 C 7,1 C 0,4 C 0,0 C 70 % 87 % 82 % 0 % 1017,6 hPa 0,0 l/m 1,1 km/h (1 Bft) O-NO 67 -2,4 C -0,5 C 2,9 km/h (1 Bft)
21.02.2020 02:24 10,8 C -0,7 C 0,4 C 7,1 C 0,3 C 0,0 C 70 % 87 % 82 % 0 % 1017,6 hPa 0,0 l/m 0,8 km/h (0 Bft) O 90 -2,6 C -0,7 C 2,9 km/h (1 Bft)
21.02.2020 02:22 10,8 C -0,7 C 0,4 C 7,1 C 0,2 C 0,0 C 70 % 87 % 82 % 0 % 1017,6 hPa 0,0 l/m 0,8 km/h (0 Bft) SW 225 -2,6 C -0,7 C 4,1 km/h (1 Bft)
21.02.2020 02:20 10,8 C -0,7 C 0,4 C 7,1 C 0,1 C 0,0 C 70 % 87 % 82 % 0 % 1017,6 hPa 0,0 l/m 1,0 km/h (0 Bft) O 90 -2,6 C -0,7 C 0,0 km/h (0 Bft)
21.02.2020 02:18 10,8 C -0,8 C 0,3 C 7,1 C 0,1 C 0,0 C 70 % 87 % 82 % 0 % 1017,8 hPa 0,0 l/m 1,3 km/h (1 Bft) S-SO 157 -2,7 C -0,8 C 2,7 km/h (1 Bft)
21.02.2020 02:16 10,8 C -0,8 C 0,2 C 7,1 C 0,0 C 0,0 C 70 % 87 % 83 % 0 % 1017,8 hPa 0,0 l/m 1,3 km/h (1 Bft) S-SO 157 -2,7 C -0,8 C 2,9 km/h (1 Bft)
21.02.2020 02:14 10,8 C -0,9 C 0,2 C 7,1 C 0,0 C 0,0 C 70 % 87 % 83 % 0 % 1017,8 hPa 0,0 l/m 1,1 km/h (1 Bft) O 90 -2,8 C -0,9 C 0,0 km/h (0 Bft)
21.02.2020 02:12 10,8 C -0,9 C 0,0 C 7,0 C -0,1 C 0,0 C 70 % 86 % 83 % 0 % 1017,8 hPa 0,0 l/m 1,1 km/h (1 Bft) O-SO 112 -2,9 C -0,9 C 3,1 km/h (1 Bft)
21.02.2020 02:10 10,8 C -1,0 C 0,0 C 7,0 C -0,1 C 0,0 C 70 % 86 % 83 % 0 % 1017,8 hPa 0,0 l/m 1,0 km/h (0 Bft) O-NO 67 -3,0 C -1,0 C 4,6 km/h (1 Bft)
21.02.2020 02:08 10,8 C -1,0 C -0,3 C 7,0 C -0,2 C 0,0 C 70 % 86 % 83 % 0 % 1017,8 hPa 0,0 l/m 0,5 km/h (0 Bft) O-NO 67 -3,0 C -1,0 C 4,1 km/h (1 Bft)
21.02.2020 02:06 10,8 C -1,0 C -0,9 C 7,0 C -0,3 C 0,0 C 70 % 86 % 83 % 0 % 1017,8 hPa 0,0 l/m 0,3 km/h (0 Bft) S 180 -3,0 C -1,0 C 0,0 km/h (0 Bft)
21.02.2020 02:04 10,8 C -1,0 C -1,0 C 7,0 C -0,4 C 0,0 C 70 % 86 % 83 % 0 % 1017,8 hPa 0,0 l/m 0,5 km/h (0 Bft) SO 135 -3,0 C -1,0 C 0,0 km/h (0 Bft)
21.02.2020 02:02 10,8 C -1,0 C -1,0 C 7,0 C -0,4 C 0,0 C 70 % 86 % 84 % 0 % 1017,8 hPa 0,0 l/m 0,8 km/h (0 Bft) O-SO 112 -3,0 C -1,0 C 3,4 km/h (1 Bft)
21.02.2020 02:00 10,8 C -1,0 C -1,5 C 7,0 C -0,5 C 0,0 C 70 % 86 % 84 % 0 % 1017,8 hPa 0,0 l/m 0,8 km/h (0 Bft) O-SO 112 -3,0 C -1,0 C 0,0 km/h (0 Bft)
21.02.2020 01:58 10,8 C -1,2 C -1,6 C 7,0 C -0,5 C 0,0 C 70 % 86 % 84 % 0 % 1017,8 hPa 0,0 l/m 0,6 km/h (0 Bft) SO 135 -3,2 C -1,2 C 0,0 km/h (0 Bft)
21.02.2020 01:56 10,8 C -1,2 C -1,9 C 7,0 C -0,5 C 0,0 C 70 % 86 % 84 % 0 % 1017,8 hPa 0,0 l/m 1,0 km/h (0 Bft) S-SO 157 -3,2 C -1,2 C 0,0 km/h (0 Bft)
21.02.2020 01:54 10,8 C -1,2 C -1,9 C 7,0 C -0,5 C 0,0 C 70 % 86 % 84 % 0 % 1017,8 hPa 0,0 l/m 1,0 km/h (0 Bft) SO 135 -3,2 C -1,2 C 4,1 km/h (1 Bft)
21.02.2020 01:52 10,8 C -1,2 C -2,1 C 7,0 C -0,5 C 0,0 C 70 % 86 % 84 % 0 % 1017,8 hPa 0,0 l/m 0,8 km/h (0 Bft) O-SO 112 -3,2 C -1,2 C 3,4 km/h (1 Bft)
21.02.2020 01:50 10,8 C -1,2 C -2,5 C 7,0 C -0,5 C 0,0 C 70 % 86 % 84 % 0 % 1017,8 hPa 0,0 l/m 0,6 km/h (0 Bft) SO 135 -3,2 C -1,2 C 2,7 km/h (1 Bft